This demonstration page uses our WeatherBlox Daily Observations layout. Learn more.

Left ArrowRight Arrow

Hourly Observations for April 4, 2016

Temp ( °F °C ) Dew Point ( °F °C ) Humidity (%) Winds ( mph kmh ) Pressure ( in mb ) Visibility ( mi km ) Precip ( " mm )
12:53 am 00:53 Cloudy 65 18.3 51 10.6 61 61 Calm 30.06 1018 10 16 0.00 0.00
1:53 am 01:53 Partly Cloudy 60 15.6 52 11.1 75 75 Calm 30.07 1018 10 16 0.00 0.00
2:53 am 02:53 Mostly Cloudy 60 15.6 49 9.4 67 67 Calm 30.09 1019 10 16 0.00 0.00
3:53 am 03:53 Mostly Clear 56 13.3 48 8.9 75 75 Calm 30.09 1019 10 16 0.00 0.00
4:53 am 04:53 Clear 59 15 46 7.8 62 62 Calm 30.11 1020 10 16 0.00 0.00
5:53 am 05:53 Clear 56 13.3 46 7.8 70 70 Calm 30.12 1020 10 16 0.00 0.00
6:53 am 06:53 Sunny 52 11.1 47 8.3 83 83 W 3 6 30.15 1021 10 16 0.00 0.00
7:53 am 07:53 Sunny 57 13.9 47 8.3 69 69 Calm 30.17 1022 10 16 0.00 0.00
8:53 am 08:53 Sunny 64 17.8 35 1.7 34 34 VRB 7 11 30.18 1022 10 16 0.00 0.00
9:53 am 09:53 Sunny 66 18.9 32 0 28 28 WNW 8 13 30.19 1023 10 16 0.00 0.00
10:53 am 10:53 Sunny 70 21.1 37 2.8 30 30 VRB 5 7 30.20 1023 10 16 0.00 0.00
11:53 am 11:53 Sunny 70 21.1 39 3.9 32 32 VRB 7 11 30.20 1023 10 16 0.00 0.00
12:53 pm 12:53 Sunny 72 22.2 36 2.2 27 27 WNW 5 7 30.19 1023 10 16 0.00 0.00
1:53 pm 13:53 Sunny 75 23.9 24 -4.4 15 15 WNW 6 9 30.19 1022 10 16 0.00 0.00
2:17 pm 14:17 Sunny 75 24 32 0 21 21 NNW 5 7 30.15 1021 10 16 0.00 0.00
2:53 pm 14:53 Sunny 75 23.9 30 -1.1 19 19 Calm 30.18 1022 10 16 0.00 0.00
3:53 pm 15:53 Sunny 76 24.4 33 0.6 21 21 NE 3 6 30.17 1022 10 16 0.00 0.00
4:53 pm 16:53 Sunny 76 24.4 35 1.7 23 23 E 5 7 30.16 1021 10 16 0.00 0.00
5:53 pm 17:53 Sunny 76 24.4 34 1.1 22 22 E 5 7 30.15 1021 10 16 0.00 0.00
6:53 pm 18:53 Sunny 75 23.9 30 -1.1 19 19 WNW 5 7 30.15 1021 10 16 0.00 0.00
7:53 pm 19:53 Clear 71 21.7 32 0 24 24 NW 6 9 30.16 1021 10 16 0.00 0.00
8:53 pm 20:53 Clear 67 19.4 34 1.1 30 30 NNE 7 11 30.19 1022 10 16 0.00 0.00
9:53 pm 21:53 Clear 61 16.1 36 2.2 39 39 NNE 8 13 30.20 1023 10 16 0.00 0.00
10:53 pm 22:53 Clear 64 17.8 32 0 30 30 N 8 13 30.22 1023 10 16 0.00 0.00
11:53 pm 23:53 Clear 65 18.3 31 -0.6 28 28 NNW 14 22 30.22 1023 10 16 0.00 0.00

Powered by AerisWeather